Terminal Aerodrome Forecast
Issued by NWS Paducah, KY

Home | Current Version | Previous Version | Text Only | Print | Product List | Glossary On
Versions: 1 2 3 4 5 6 7 8 9 10 11 12 13 14 15 16 17 18 19 20 21
000
FTUS43 KPAH 051553 AAA
TAFEVV
TAF AMD
KEVV 051553Z 0516/0612 00000KT 5SM HZ SKC
     FM051730 VRB04KT 6SM HZ SCT030
     FM060600 VRB02KT 4SM BR SCT250=

USA.gov is the U.S. government's official web portal to all federal, state and local government web resources and services.